9A3ZI-11 Weather Reports


time (UTC)temp
C
wind
direction
speed
KPH
gust
KPH
rain 1hr
cm
rain 24hr
cm
rain mn
cm
humidity
%
barometer
mb
20260505054645 13 0.0 0.0 0.00 0.00 0.00 20 1009.7
20260505054140 13 0.0 0.0 0.00 0.00 0.00 20 1009.7
20260505053635 13 0.0 0.0 0.00 0.00 0.00 20 1009.7
20260505053135 13 0.0 0.0 0.00 0.00 0.00 20 1009.4
20260505052626 13 180 4.8 4.8 0.00 0.00 0.00 20 1009.4
20260505052121 13 0.0 0.0 0.00 0.00 0.00 20 1009.6
20260505051638 13 0.0 0.0 0.00 0.00 0.00 20 1009.6
20260505051114 13 0.0 3.2 0.00 0.00 0.00 20 1009.5
20260505050510 13 0.0 0.0 0.00 0.00 0.00 20 1009.4
20260505041731 11 0.0 0.0 0.00 0.00 0.00 23 1009.6
20260505041227 11 0.0 0.0 0.00 0.00 0.00 23 1009.5
20260505040722 12 0.0 0.0 0.00 0.00 0.00 20 1009.6
20260505040218 12 0.0 0.0 0.00 0.00 0.00 20 1009.5
20260505035714 12 0.0 0.0 0.00 0.00 0.00 15 1009.5
20260505035131 12 0.0 0.0 0.00 0.00 0.00 15 1009.5
20260505034507 12 0.0 0.0 0.00 0.00 0.00 15 1009.5
20260505033904 12 0.0 0.0 0.00 0.00 0.00 15 1009.5
20260505033417 12 180 4.8 9.7 0.00 0.00 0.00 15 1009.4
20260505032853 12 225 4.8 8.0 0.00 0.00 0.00 20 1009.5
20260505032409 12 135 4.8 6.4 0.00 0.00 0.00 20 1009.4
20260505031842 11 0.0 0.0 0.00 0.00 0.00 26 1009.4
20260505031338 11 0.0 0.0 0.00 0.00 0.00 26 1009.4
20260505030833 11 0.0 0.0 0.00 0.00 0.00 30 1009.5
20260505030328 11 0.0 0.0 0.00 0.00 0.00 30 1009.5
20260505025823 10 0.0 0.0 0.00 0.00 0.00 30 1009.5
20260505025339 10 0.0 0.0 0.00 0.00 0.00 30 1009.7
20260505024814 10 0.0 0.0 0.00 0.00 0.00 30 1009.7
20260505024210 10 0.0 0.0 0.00 0.00 0.00 30 1009.7
20260505023607 11 0.0 0.0 0.00 0.00 0.00 26 1009.6
20260505023024 11 0.0 0.0 0.00 0.00 0.00 26 1009.8
20260505022459 11 0.0 0.0 0.00 0.00 0.00 30 1009.7
20260505021953 11 0.0 0.0 0.00 0.00 0.00 30 1009.6
20260505021448 11 0.0 0.0 0.00 0.00 0.00 30 1010.0
20260505020944 11 0.0 0.0 0.00 0.00 0.00 30 1009.7
20260505020439 10 0.0 0.0 0.00 0.00 0.00 31 1010.0
20260505015935 10 0.0 0.0 0.00 0.00 0.00 32 1009.9
20260505015430 10 0.0 0.0 0.00 0.00 0.00 33 1010.1
20260505014945 9 0.0 0.0 0.00 0.00 0.00 34 1010.0
20260505014420 8 0.0 0.0 0.00 0.00 0.00 35 1010.1
20260505013916 8 0.0 0.0 0.00 0.00 0.00 34 1010.2
20260505013412 8 0.0 0.0 0.00 0.00 0.00 34 1010.0
20260505012830 8 0.0 0.0 0.00 0.00 0.00 35 1010.1
20260505012226 8 0.0 0.0 0.00 0.00 0.00 36 1010.0
20260505011602 8 0.0 0.0 0.00 0.00 0.00 35 1010.1
20260505011159 8 0.0 0.0 0.00 0.00 0.00 32 1010.1
20260505010653 8 0.0 0.0 0.00 0.00 0.00 31 1010.1
20260505010149 9 0.0 0.0 0.00 0.00 0.00 31 1010.2
20260505005644 10 0.0 0.0 0.00 0.00 0.00 30 1010.3
20260505005321 10 0.0 0.0 0.00 0.00 0.00 30 1010.3
20260505004635 10 0.0 0.0 0.00 0.00 0.00 30 1010.4
20260505004211 11 0.0 0.0 0.00 0.00 0.00 30 1010.4
20260505003625 11 0.0 0.0 0.00 0.00 0.00 26 1010.3
20260505003120 12 0.0 0.0 0.00 0.00 0.00 22 1010.5
20260505002615 12 0.0 0.0 0.00 0.00 0.00 22 1010.5
20260505002032 12 0.0 0.0 0.00 0.00 0.00 30 1010.3
20260505001408 12 0.0 0.0 0.00 0.00 0.00 24 1010.7
20260505000804 12 0.0 0.0 0.00 0.00 0.00 24 1010.5
20260505000301 12 0.0 0.0 0.00 0.00 0.00 24 1010.4
20260504235756 12 0.0 0.0 0.00 0.00 0.00 24 1010.5
20260504235252 12 0.0 0.0 0.00 0.00 0.00 24 1010.6
20260504234827 12 180 1.6 4.8 0.00 0.00 0.00 22 1010.8
20260504234303 12 0.0 0.0 0.00 0.00 0.00 24 1010.7
20260504233739 12 0.0 0.0 0.00 0.00 0.00 24 1010.8
20260504233234 12 0.0 0.0 0.00 0.00 0.00 30 1010.7
20260504232729 11 202 3.2 4.8 0.00 0.00 0.00 30 1010.8
20260504232224 11 0.0 0.0 0.00 0.00 0.00 30 1010.8
20260504231720 11 0.0 0.0 0.00 0.00 0.00 31 1010.9
20260504231215 11 0.0 0.0 0.00 0.00 0.00 31 1011.1
20260504230712 10 0.0 0.0 0.00 0.00 0.00 31 1011.1
20260504230109 10 0.0 0.0 0.00 0.00 0.00 31 1011.0
20260504225505 11 0.0 0.0 0.00 0.00 0.00 30 1011.2
20260504224902 11 0.0 0.0 0.00 0.00 0.00 30 1011.0
20260504224458 11 0.0 0.0 0.00 0.00 0.00 30 1011.0
20260504224013 11 0.0 0.0 0.00 0.00 0.00 31 1011.1
20260504223449 11 0.0 0.0 0.00 0.00 0.00 31 1011.1
20260504222945 11 0.0 0.0 0.00 0.00 0.00 31 1011.3
20260504222440 11 0.0 0.0 0.00 0.00 0.00 32 1011.3
20260504221935 10 0.0 0.0 0.00 0.00 0.00 32 1011.3
20260504221431 10 0.0 0.0 0.00 0.00 0.00 31 1011.3
20260504220926 10 0.0 0.0 0.00 0.00 0.00 30 1011.4
20260504220422 10 0.0 0.0 0.00 0.00 0.00 30 1011.4
20260504215917 11 0.0 0.0 0.00 0.00 0.00 30 1011.4
20260504215413 11 0.0 0.0 0.00 0.00 0.00 30 1011.2
20260504214810 11 0.0 0.0 0.00 0.00 0.00 31 1011.3
20260504214206 11 0.0 0.0 0.00 0.00 0.00 31 1011.2
20260504213643 10 0.0 0.0 0.00 0.00 0.00 31 1011.1
20260504213200 10 0.0 0.0 0.00 0.00 0.00 31 1011.3
20260504212655 10 0.0 0.0 0.00 0.00 0.00 30 1011.3
20260504212210 10 0.0 0.0 0.00 0.00 0.00 30 1011.2
20260504211646 10 0.0 0.0 0.00 0.00 0.00 30 1011.4
20260504211141 10 0.0 0.0 0.00 0.00 0.00 30 1011.3
20260504210637 10 0.0 0.0 0.00 0.00 0.00 30 1011.4
20260504210152 10 0.0 0.0 0.00 0.00 0.00 30 1011.3
20260504205627 10 0.0 0.0 0.00 0.00 0.00 30 1011.3
20260504205122 10 0.0 0.0 0.00 0.00 0.00 26 1011.4
20260504204618 10 0.0 0.0 0.00 0.00 0.00 26 1011.4
20260504204115 11 0.0 0.0 0.00 0.00 0.00 26 1011.4
20260504203510 11 0.0 0.0 0.00 0.00 0.00 23 1011.5
20260504202906 11 0.0 0.0 0.00 0.00 0.00 20 1011.3
20260504202304 12 0.0 0.0 0.00 0.00 0.00 15 1011.5
20260504201759 12 0.0 0.0 0.00 0.00 0.00 15 1011.1
20260504201314 12 0.0 0.0 0.00 0.00 0.00 15 1011.3
20260504200749 13 0.0 0.0 0.00 0.00 0.00 15 1011.5
20260504200244 13 0.0 0.0 0.00 0.00 0.00 19 1011.5
20260504195739 14 0.0 0.0 0.00 0.00 0.00 19 1011.5
20260504195235 14 0.0 0.0 0.00 0.00 0.00 19 1011.5
20260504194729 14 0.0 0.0 0.00 0.00 0.00 19 1011.5
20260504194225 15 0.0 0.0 0.00 0.00 0.00 19 1011.5
20260504193720 15 0.0 0.0 0.00 0.00 0.00 19 1011.3
20260504193222 15 0.0 0.0 0.00 0.00 0.00 19 1011.3
20260504192610 15 0.0 0.0 0.00 0.00 0.00 19 1011.2
20260504192007 15 0.0 0.0 0.00 0.00 0.00 19 1011.2
20260504191403 15 0.0 0.0 0.00 0.00 0.00 19 1011.2
20260504191020 15 0.0 0.0 0.00 0.00 0.00 19 1011.1
20260504190455 15 0.0 0.0 0.00 0.00 0.00 19 1011.0
20260504185950 16 0.0 0.0 0.00 0.00 0.00 19 1011.2
20260504185446 16 0.0 0.0 0.00 0.00 0.00 19 1010.9
20260504184941 16 0.0 0.0 0.00 0.00 0.00 19 1010.8
20260504184436 16 0.0 0.0 0.00 0.00 0.00 19 1010.9
20260504183932 17 0.0 0.0 0.00 0.00 0.00 19 1010.8
20260504183427 17 0.0 0.0 0.00 0.00 0.00 19 1010.6
20260504182923 17 0.0 0.0 0.00 0.00 0.00 19 1010.9
20260504182438 17 0.0 0.0 0.00 0.00 0.00 19 1010.8
20260504181913 18 0.0 0.0 0.00 0.00 0.00 19 1010.7
20260504181330 18 0.0 0.0 0.00 0.00 0.00 19 1010.6
20260504180706 20 0.0 0.0 0.00 0.00 0.00 19 1010.5
20260504180123 20 0.0 0.0 0.00 0.00 0.00 19 1010.6
20260504175559 21 0.0 0.0 0.00 0.00 0.00 19 1010.5
20260504175054 21 0.0 0.0 0.00 0.00 0.00 19 1010.5
20260504174549 21 0.0 0.0 0.00 0.00 0.00 19 1010.5
20260504174045 21 0.0 0.0 0.00 0.00 0.00 19 1010.4
20260504173601 21 0.0 0.0 0.00 0.00 0.00 19 1010.4
20260504173056 22 0.0 0.0 0.00 0.00 0.00 19 1010.5
20260504172531 22 0.0 0.0 0.00 0.00 0.00 19 1010.4
20260504172046 23 0.0 0.0 0.00 0.00 0.00 19 1010.6
20260504171520 23 180 1.6 3.2 0.00 0.00 0.00 19 1010.5
20260504171015 23 0.0 0.0 0.00 0.00 0.00 19 1010.4
20260504170532 23 0.0 0.0 0.00 0.00 0.00 19 1010.4
20260504160145 26 180 8.0 12.9 0.00 0.00 0.00 19 1010.7
20260504150738 26 45 11.3 16.1 0.00 0.00 0.00 19 1010.9
20260504150233 26 315 9.7 14.5 0.00 0.00 0.00 19 1011.0
20260504140850 26 135 9.7 11.3 0.00 0.00 0.00 19 1011.5
20260504140345 26 135 0.0 6.4 0.00 0.00 0.00 19 1011.5
20260504130600 27 315 6.4 9.7 0.00 0.00 0.00 19 1012.1
20260504120307 25 135 6.4 12.9 0.00 0.00 0.00 15 1012.8
20260504110717 25 135 8.0 9.7 0.00 0.00 0.00 15 1013.4
20260504110213 25 135 4.8 9.7 0.00 0.00 0.00 15 1013.4
20260504100326 23 180 12.9 16.1 0.00 0.00 0.00 19 1014.3
20260504081702 21 225 9.7 14.5 0.00 0.00 0.00 19 1015.0
20260504081300 21 180 6.4 9.7 0.00 0.00 0.00 19 1015.0
20260504080755 21 180 3.2 9.7 0.00 0.00 0.00 19 1015.2
20260504080251 21 180 8.0 9.7 0.00 0.00 0.00 19 1014.9
20260504070405 18 0.0 0.0 0.00 0.00 0.00 19 1014.7
20260504060212 17 0.0 0.0 0.00 0.00 0.00 19 1014.7